Find Starlink 2608

NORAD ID: 48365 Int'l Des: 2021-038 Owner: SPXS Country: US Constellation: starlink operational
LEOCIRCULAR

当前视图

正在加载3D地球...

About Starlink 2608

Starlink 2608 (NORAD 48365) is a starlink constellation satellite (v1.0) launched May 4, 2021 by SPXS of US. It operates in LEO, CIRCULAR orbit with a mass of 260.00 kg.

即将过境

Passes for default location (London). Set your location on the main map for personalized predictions.

高度历史

Loading altitude history...

两行轨道根数

1 48365U 21038N 26263.17385894 .00003300 00000-0 11805-3 0 9998
2 48365 53.1608 162.7560 0001381 106.5070 253.6083 15.31703203297033
Epoch: Sep 20, 2026 • Age: 30 hours

当前状态

高度 473.3 km
远地点 / 近地点 N/A
速度 7.63 km/s
星下点 37.15°N, 38.93°E
发射日期 May 4, 2021
运行时间 5.3 years
类型 internet

技术详情

分类 Payload
质量 260.00 kg
干质量 248.00 kg
长度 0.20 m
跨度 9.00 m
形状 ? Box + pan
制造商 SPXS
平台类型 Starlink
阶段状态 In Orbit
所有者/国家 SPXS/US

Most Searched